User: anonymous   Login
Location: Unspecified
(0.0000°N, 0.0000°E)
Time: 09:45:48
(UTC+00:00)
Language:

GONETS D1M 1 - Orbit

View from above orbital plane
View from above orbital plane
View from above satellite
View from above satellite

Ground track
Ground track

The orbit data is extracted from the following two-line orbital elements,

1 28908U 05048A   24110.96265201  .00000062  00000-0  31381-3 0  9990
2 28908  82.4642  91.7048 0008934 122.7663 291.7897 12.55554100839983
Epoch (UTC): 19 April 2024 23:06:13
Eccentricity: 0.0008934
inclination: 82.4642°
perigee height: 1434 km
apogee height: 1448 km
right ascension of ascending node: 91.7048°
argument of perigee: 122.7663°
revolutions per day: 12.55554100
mean anomaly at epoch: 291.7897°
orbit number at epoch: 83998

The dashed part of the orbit path shows where the satellite is in the earth's shadow,  

DLR